Regional Weather Roundup
Issued by NWS

Home | Current Version | Previous Version | Graphics & Text | Print | Product List | Glossary Off
Versions: 1 2 3 4 5 6 7 8 9 10 11 12 13 14 15 16 17 18 19 20 21 22 23 24 25 26 27 28 29 30 31 32 33 34 35 36 37 38 39 40 41 42 43 44 45 46 47 48 49 50

000
ASUS43 KDTX 231110
RWRMI
MICHIGAN HOURLY REGIONAL WEATHER ROUNDUP
NATIONAL WEATHER SERVICE DETROIT/PONTIAC MI
700 AM EDT TUE SEP 23 2014

NOTE: "FAIR" INDICATES FEW OR NO CLOUDS BELOW 12,000 FEET WITH NO
SIGNIFICANT WEATHER AND/OR OBSTRUCTION TO VISIBILITY.

MIZ047>049-052>055-059>063-066>070-074>076-081>083-231200-
SOUTHEAST LOWER MICHIGAN

CITY           SKY/WX    TMP DP  RH WIND       PRES   REMARKS
ADRIAN         CLEAR     41  40  96 CALM      30.33R
ALMA           CLEAR     42  42  97 CALM      30.29R
ANN ARBOR      FOG       36  33  89 CALM      30.32R VSB 1/2
BAD AXE        CLEAR     44  44 100 CALM      30.28S
CARO           CLEAR     42  42  99 CALM      30.29R FOG
DETROIT CITY   CLEAR     49  44  83 CALM      30.32R
DETROIT        PTCLDY    46  43  89 CALM      30.32R
FLINT          CLEAR     43  40  89 CALM      30.31R
GROSSE ILE     CLEAR     46  45  93 CALM      30.31R
HILLSDALE      CLEAR     41  41 100 CALM      30.31S FOG
HOWELL         CLEAR     43  43  98 CALM      30.31R

CITY           SKY/WX    TMP DP  RH WIND       PRES   REMARKS
JACKSON        CLEAR     41  39  93 CALM      30.32R
LAMBERTVILLE   CLEAR     43  39  87 CALM      30.32R
LANSING        CLEAR     45  42  89 CALM      30.31R
LAPEER         FAIR      40  40  98 CALM      30.30S
MASON          CLEAR     43  42  97 CALM      30.31R
MONROE         CLEAR     41  41 100 CALM      30.31R FOG
MT. CLEMENS    CLEAR     46  46  99 CALM      30.29R
PONTIAC        CLEAR     44  41  89 CALM      30.30R
PORT HOPE        N/A     50  46  86 SW8       30.24R
PORT HURON     FOG       39  39 100 CALM      30.30R VSB 3/4
TRI CITIES     CLEAR     47  44  90 SW7       30.29R
TROY           CLEAR     48  44  87 W3        30.32R
SAGINAW HB     CLEAR     45  45 100 SW6       30.28S
$$
MIZ043>046-050>051-056>058-064>065-071>073-077>080-231200-
SOUTHWEST LOWER MICHIGAN

CITY           SKY/WX    TMP DP  RH WIND       PRES   REMARKS
BATTLE CREEK   CLEAR     46  42  86 S3        30.32R
BENTON HARBOR  CLEAR     42  41  96 CALM      30.31R
BIG RAPIDS     CLOUDY    45  45 100 CALM      30.27S FOG
COLDWATER      CLEAR     43  42  97 CALM      30.32R
FREMONT        FAIR      46  45  98 CALM      30.28R FOG
HOLLAND        CLEAR     47  43  86 S3        30.30R
GRAND RAPIDS   CLEAR     46  43  89 S3        30.30R
IONIA          FAIR      45  43  94 SW5       30.29R
KALAMAZOO      CLEAR     43  41  93 CALM      30.32R
LUDINGTON      FOG       49  49  97 CALM      30.27R VSB 1/4
MARSHALL         N/A     40  39  98 S6        30.31R FOG
MOUNT PLEASANT CLEAR     44  43  97 SW5       30.27S
MUSKEGON       CLEAR     50  47  89 S3        30.29R
SOUTH HAVEN    CLEAR     44  43  97 CALM      30.31R
$$
MIZ016>042-231200-
NORTHERN LOWER MICHIGAN

CITY           SKY/WX    TMP DP  RH WIND       PRES   REMARKS
ALPENA         CLEAR     50  46  86 SW6       30.20R
BEAVER ISLAND  CLEAR     57  54  92 W7        30.19R
BELLAIRE       CLEAR     44  43  96 CALM      30.23R FOG
CADILLAC       FOG       48  48 100 SW3       30.25R VSB 1/4
CHARLEVOIX     CLEAR     55  54  97 CALM      30.23R
FRANKFORT      CLEAR     48  46  91 CALM      30.24R
GAYLORD        CLEAR     47  46  97 SW5       30.23R
GRAYLING       CLEAR     40  40 100 CALM      30.25R
HARBOR SPRINGS CLEAR     52  50  92 CALM      30.21R
HOUGHTON LAKE  CLEAR     50  48  93 SW7       30.26R
MANISTEE       PTCLDY    43  39  87 E3        30.27R
OSCODA         CLEAR     47  45  91 SW8       30.23R
PELLSTON       CLEAR     53  50  89 CALM      30.20R
ROGERS CITY    CLEAR     52  49  92 SW10      30.19R
TRAVERSE CITY  CLEAR     52  49  89 CALM      30.22R
$$
MIZ007>008-015-231200-
EASTERN UPPER MICHIGAN

CITY           SKY/WX    TMP DP  RH WIND       PRES   REMARKS
KINROSS        CLEAR     54  54 100 SW6       30.16R
MACKINAC ISLAN CLEAR     56  55  94 SW9       30.18R
NEWBERRY       CLEAR     50  48  91 W7        30.15R
S. S. MARIE    CLEAR     47  45  93 SW5       30.15R
MUNISING         N/A     52  48  86 S9        30.15R
$$
MIZ004>006-011>014-085-231200-
CENTRAL UPPER MICHIGAN

CITY           SKY/WX    TMP DP  RH WIND       PRES   REMARKS
MANISTIQUE     CLEAR     49  48  95 W6        30.16R
ESCANABA       CLEAR     48  46  93 W7        30.18R
MENOMINEE      CLEAR     50  46  87 SW3       30.21R
SAWYER-GWINN   CLEAR     48  46  93 SW7       30.18R
$$
MIZ001>003-009>011-084-231200-
WESTERN UPPER MICHIGAN

CITY           SKY/WX    TMP DP  RH WIND       PRES   REMARKS
IRON MOUNTAIN  CLEAR     50  47  89 NW3       30.20R
HOUGHTON       CLEAR     56  49  77 NW14      30.15S
COPPER HARBOR    N/A     61  49  64 NW8       30.13R
IRONWOOD       CLEAR     45  43  93 CALM      30.18S
$$

ABBREVIATIONS USED IN REMARKS
   TC - TEMPERATURE IN CELSIUS
  WCI - WIND CHILL INDEX
   HX - HEAT INDEX
  VSB - VISIBILITY




USA.gov is the U.S. government's official web portal to all federal, state and local government web resources and services.